Current Weather Conditions by Major Hwy


I-84 West to East [Columbia River Gorge] 400 PM PDT MON SEP 25 2017 ELEVA CITY SKY/WX TMP DP RH WIND PRES REMARKS 10 ASTORIA, OR CLOUDY 62 57 83 SW7 30.10S 20 KELSO CLOUDY 65 56 72 S3 30.12F 40 PORTLAND, OR CLOUDY 68 54 60 VRB5 30.11F 30 TROUTDALE, OR CLOUDY 69 52 54 CALM 30.11S 240 THE DALLES, OR MOSUNNY 74 49 41 W14 30.03F 620 HERMISTON, OR CLOUDY 73 49 42 N5 30.02S 1,480 PENDLETON, OR CLOUDY 70 44 39 NW7 30.04S 2,710 LA GRANDE CLOUDY 67 41 38 VRB5 30.06F 3,370 BAKER CITY PTSUNNY 66 43 43 W7 30.09S 2,190 ONTARIO SUNNY 71 35 26 VRB3 30.07F
I-90 West to East 400 PM PDT MON SEP 25 2017 ELEVA CITY SKY/WX TMP DP RH WIND PRES REMARKS 30 SEATAC AIRPORT CLOUDY 64 53 67 S6 30.12S 1,730 ELLENSBURG CLOUDY 67 48 50 NW18 30.04F 1,200 MOSES LAKE CLOUDY 68 45 43 CALM 30.03F 1,880 SPOKANE GEIGER PTSUNNY 66 44 45 S6 30.04F
I-82 North West to South East 400 PM PDT MON SEP 25 2017 ELEVA CITY SKY/WX TMP DP RH WIND PRES REMARKS 1,730 ELLENSBURG CLOUDY 67 48 50 NW18 30.04F 1,050 YAKIMA TC CLOUDY 69 47 45 W5 30.01F 720 360 PASCO CLOUDY 75 47 36 NW6 30.02F 620 HERMISTON, OR CLOUDY 73 49 42 N5 30.02S
Hwy97 North to South 400 PM PDT MON SEP 25 2017 ELEVA CITY SKY/WX TMP DP RH WIND PRES REMARKS 850 OMAK CLOUDY 70 45 40 SE5 30.01F 630 WENATCHEE PTSUNNY 67 48 50 E5 30.02S 1,730 ELLENSBURG CLOUDY 67 48 50 NW18 30.04F 1,050 YAKIMA TC CLOUDY 69 47 45 W5 30.01F 1,640 GOLDENDALE* MOSUNNY 74 49 41 W14 30.03F *From Dallesport Airport Elev 240 3,080 REDMOND CLOUDY 71 36 27 MISG 30.09S 4,100 KLAMATH FALLS MOSUNNY 70 36 28 N12 30.10F
I-5 North to South 400 PM PDT MON SEP 25 2017 ELEVA CITY SKY/WX TMP DP RH WIND PRES REMARKS 150 BELLINGHAM PTSUNNY 64 55 72 S7 30.09F 100 ARLINGTON CLOUDY 66 54 65 S6 30.10F 610 EVERETT CLOUDY 62 55 77 SW10 30.11F 30 SEATAC AIRPORT CLOUDY 64 53 67 S6 30.12S 200 OLYMPIA LGT RAIN 63 58 83 S3 30.11F 20 KELSO CLOUDY 65 56 72 S3 30.12F 100 VANCOUVER CLOUDY 67 57 70 W6 30.11S 40 PORTLAND CLOUDY 68 54 60 VRB5 30.11F 200 SALEM CLOUDY 69 51 52 E5 30.10F 360 EUGENE PTSUNNY 71 50 47 CALM 30.10F 510 ROSEBURG SUNNY 76 49 38 N8 30.07F 1,300 MEDFORD MOSUNNY 75 44 33 CALM 30.04F
Data from:
http://www.wrh.noaa.gov/sew/get.php?pil=RWR&sid=OR&version=0&format=printer
http://www.wrh.noaa.gov/sew/get.php?pil=RWR&sid=WA&version=0&format=printer

Current Observations

Washington State Current Weather Observations   …  Oregon State Current Weather Observation



48 Hour Forecast

Seattle  …  Vancouver  …  Portland
————————————————————————————————————————
Bend  …  Spokane  …  Richland  …  Pendleton  …  Blue Mountains I-84  …  Yakima
————————————————————————————————————————
Goldendale, Washington Higher Elevations  …  Dallesport Airport - Goldendale  …  Bingen - White Salmon - Hood River  …  Index


Top of Page